This is the latest recevied weather packets stored in our database for station/object IU1OPQ-3. If no packets are shown the sender has not sent any weather packets the latest 10 day(s).
| Time | Temp. | Humidity | Pressure | Rain* | Wind** | Luminosity | Snow |
|---|---|---|---|---|---|---|---|
| 1777451401 | 13.89° C | 85% | 1017.1 hPa | 0 mm | - | - | - |
| 1777450501 | 13.33° C | 88% | 1017.4 hPa | 0 mm | - | - | - |
| 1777449603 | 12.78° C | 90% | 1017.3 hPa | 0 mm | - | - | - |
| 1777448701 | 12.78° C | 92% | 1017 hPa | 0 mm | - | - | - |
| 1777447801 | 12.78° C | 92% | 1017 hPa | 0 mm | - | - | - |
| 1777446901 | 12.78° C | 93% | 1016.9 hPa | 0 mm | - | - | - |
| 1777446001 | 12.78° C | 93% | 1016.8 hPa | 0 mm | - | - | - |
| 1777445101 | 12.78° C | 92% | 1016.9 hPa | 0 mm | - | - | - |
| 1777444201 | 12.78° C | 91% | 1016.5 hPa | 0 mm | - | - | - |
| 1777443301 | 12.78° C | 92% | 1016.7 hPa | 0 mm | - | - | - |
| 1777442400 | 12.78° C | 92% | 1016.5 hPa | 0 mm | - | - | - |
| 1777441501 | 12.78° C | 92% | 1016.4 hPa | 0 mm | - | - | - |
| 1777440601 | 12.78° C | 93% | 1016.5 hPa | 0 mm | - | - | - |
| 1777439701 | 12.22° C | 93% | 1016.3 hPa | 0 mm | - | - | - |
| 1777438801 | 12.22° C | 93% | 1016.3 hPa | 0 mm | - | - | - |
| 1777437901 | 12.78° C | 92% | 1016 hPa | 0 mm | - | - | - |
| 1777437001 | 12.78° C | 91% | 1015.9 hPa | 0 mm | - | - | - |
| 1777436101 | 12.78° C | 90% | 1016.1 hPa | 0 mm | - | - | - |
| 1777435201 | 12.78° C | 88% | 1016.1 hPa | 0 mm | - | - | - |
| 1777434301 | 12.78° C | 87% | 1016.1 hPa | 0 mm | - | - | - |
| 1777433401 | 12.78° C | 86% | 1016.1 hPa | 0 mm | - | - | - |
| 1777432501 | 12.78° C | 87% | 1016 hPa | 0 mm | - | - | - |
| 1777431601 | 12.78° C | 86% | 1016.4 hPa | 0 mm | - | - | - |
| 1777430701 | 12.78° C | 88% | 1016 hPa | 0 mm | - | - | - |
| 1777429801 | 12.22° C | 93% | 1016 hPa | 0 mm | - | - | - |
* Rain latest hour (hover to see other rain measurements)
** Current wind speed in m/s (hover to see current wind gust speed)